Voltar ao catálogo

ELEKTRON 3

AtivoCiênciaHEO
NORAD 829·PAYLOAD·🇷🇺 Russia

Lançado Jul 10, 1964 de Baikonur Cosmodrome

Loading…

Próximas Passagens (próximas 24 horas)

TLE

AtualizadoSource: Space-Track

Época: Sep 13, 2026, 21:05 UTC

1   829U 64038A   26256.87858086  .00000682  00000-0  19824-3 0  9994
2   829  60.8031  77.9286 2938076  12.9648 353.2568  9.21539341 23625

Acompanhe ELEKTRON 3 em tempo real com AllMySat

Download on the App Store